Weather History for KIAG - January, 2013

Change the Weather History Date:

Thursday, January 10, 2013

  Actual Average Record
Temperature  
Mean Temperature 36 °F -  
Max Temperature 41 °F 28 °F 44 °F (2000)
Min Temperature 30 °F 17 °F -8 °F (2004)
Degree Days  
Heating Degree Days 30    
Moisture  
Dew Point 26 °F    
Average Humidity 70    
Maximum Humidity 82    
Minimum Humidity 53    
Precipitation  
Precipitation 0.00 in - - ()
Sea Level Pressure  
Sea Level Pressure 30.53 in    
Wind  
Wind Speed 7 mph (WSW)    
Max Wind Speed 12 mph    
Max Gust Speed -    
Visibility 10 miles    
Events      
Averages and records for this station are not official NWS values.
T = Trace of Precipitation, MM = Missing Value Source: NWS Daily Summary

Daily Weather History Graph

Daily Weather History Graph

Search for Another Location

Airport or City:

Trip Planner

Search our weather history database for the weather conditions in past years. The results will help you decide how hot, cold, wet, or windy it might be!

Date:

Astronomy

Jan. 10, 2013 Rise Set
Actual Time 7:46 AM EST 5:00 PM EST
Civil Twilight 7:14 AM EST 5:32 PM EST
Nautical Twilight 6:39 AM EST 6:07 PM EST
Astronomical Twilight 6:04 AM EST 6:42 PM EST
Moon 6:24 AM EST (1/10) 4:06 PM EST (1/10)
Length of Visible Light 10h 17m
Length of Day
9h 14m
Waning Crescent, 2% of the Moon is Illuminated
Jan 10
Waning Crescent
Jan 11
New
Jan 18
First Quarter
Jan 26
Full
Feb 3
Last Quarter

Hourly Weather History & Observations

Time (EST) Temp. Windchill Dew Point Humidity Pressure Visibility Wind Dir Wind Speed Gust Speed Precip Events Conditions
12:53 AM 37.0 °F 29.8 °F 27.0 °F 67% 30.42 in 10.0 mi West 10.4 mph - N/A   Overcast
1:53 AM 37.9 °F 30.5 °F 27.0 °F 65% 30.43 in 10.0 mi NW 11.5 mph - N/A   Mostly Cloudy
2:53 AM 36.0 °F 29.6 °F 25.0 °F 64% 30.47 in 10.0 mi WNW 8.1 mph - N/A   Partly Cloudy
3:53 AM 34.0 °F 26.6 °F 26.1 °F 73% 30.50 in 10.0 mi WSW 9.2 mph - N/A   Mostly Cloudy
4:53 AM 34.0 °F 26.0 °F 27.0 °F 75% 30.51 in 10.0 mi WSW 10.4 mph - N/A   Overcast
5:53 AM 34.0 °F 27.2 °F 27.0 °F 75% 30.52 in 10.0 mi WSW 8.1 mph - N/A   Overcast
6:53 AM 33.1 °F 28.7 °F 27.0 °F 78% 30.55 in 10.0 mi WSW 4.6 mph - N/A   Overcast
7:00 AM 32.0 °F 27.5 °F 26.6 °F 80% 30.52 in 10.0 mi WSW 4.6 mph - N/A   Mostly Cloudy
7:53 AM 30.0 °F 24.1 °F 25.0 °F 82% 30.60 in 10.0 mi WSW 5.8 mph - N/A   Mostly Cloudy
8:53 AM 34.0 °F 28.8 °F 26.1 °F 73% 30.63 in 10.0 mi West 5.8 mph - N/A   Mostly Cloudy
9:53 AM 37.0 °F 33.3 °F 26.1 °F 65% 30.63 in 10.0 mi West 4.6 mph - N/A   Scattered Clouds
10:53 AM 39.0 °F 35.7 °F 25.0 °F 57% 30.61 in 10.0 mi West 4.6 mph - N/A   Scattered Clouds
11:53 AM 39.9 °F 37.8 °F 25.0 °F 55% 30.59 in 10.0 mi North 3.5 mph - N/A   Scattered Clouds
12:53 PM 39.9 °F 36.7 °F 26.1 °F 58% 30.57 in 10.0 mi SW 4.6 mph - N/A   Mostly Cloudy
1:53 PM 39.9 °F 37.8 °F 26.1 °F 58% 30.56 in 10.0 mi Variable 3.5 mph - N/A   Mostly Cloudy
2:53 PM 41.0 °F 39.0 °F 25.0 °F 53% 30.56 in 10.0 mi South 3.5 mph - N/A   Mostly Cloudy
3:53 PM 41.0 °F - 25.0 °F 53% 30.54 in 10.0 mi Calm Calm - N/A   Mostly Cloudy
4:53 PM 36.0 °F 32.1 °F 28.0 °F 73% 30.55 in 10.0 mi South 4.6 mph - N/A   Mostly Cloudy
5:53 PM 35.1 °F 32.2 °F 27.0 °F 72% 30.55 in 10.0 mi South 3.5 mph - N/A   Overcast
6:53 PM 34.0 °F 31.0 °F 27.0 °F 75% 30.55 in 10.0 mi ENE 3.5 mph - N/A   Overcast
7:53 PM 32.0 °F 28.7 °F 27.0 °F 82% 30.53 in 10.0 mi East 3.5 mph - N/A   Overcast
8:53 PM 32.0 °F 25.6 °F 27.0 °F 82% 30.51 in 10.0 mi East 6.9 mph - N/A   Overcast
9:53 PM 33.1 °F 28.7 °F 27.0 °F 78% 30.50 in 10.0 mi East 4.6 mph - N/A   Mostly Cloudy
10:53 PM 33.1 °F 26.9 °F 26.1 °F 75% 30.45 in 10.0 mi East 6.9 mph - N/A   Overcast
11:53 PM 33.1 °F 25.5 °F 26.1 °F 75% 30.41 in 10.0 mi ESE 9.2 mph - N/A   Clear